Regional Weather Roundup
Issued by NWS Green Bay, WI

Home | Current Version | Previous Version | Text Only | Print | Product List | Glossary On
Versions: 1 2 3 4 5 6 7 8 9 10 11 12 13 14 15 16 17 18 19 20 21 22 23 24 25 26 27 28 29 30 31 32 33 34 35 36 37 38 39 40 41 42 43 44 45 46 47 48 49 50
117
ASUS43 KGRB 262011
RWRGRB

NORTH-CENTRAL AND NORTHEAST WISCONSIN REGIONAL WEATHER ROUNDUP
NATIONAL WEATHER SERVICE GREEN BAY WI
300 PM CDT WED JUL 26 2017

WIZ005-009-010>012-018-019-262100-
NORTH CENTRAL WISCONSIN

CITY           SKY/WX    TMP DP  RH WIND       PRES   REMARKS
IRONWOOD       SUNNY     77  60  55 NW12      29.98S
MANITOWISH WTR SUNNY     80  57  45 W7        29.97F
ARBOR VITAE    SUNNY     80  64  58 NW9G16    29.98S
EAGLE RIVER    CLOUDY    78  61  55 NW9       29.97S
LAND O LAKES   SUNNY     81  56  43 W6        29.98F
RHINELANDER    CLOUDY    78  68  71 W8        29.99S
PHILLIPS       SUNNY     78  63  60 W6        29.98F
ANTIGO         CLOUDY    71  69  94 W9        29.99S
TOMAHAWK         N/A     71  66  85 SW5       30.01R
MERRILL        CLOUDY    73  71  94 W7        30.00R
$$

WIZ013-073-262100-
NORTHEAST WISCONSIN

CITY           SKY/WX    TMP DP  RH WIND       PRES   REMARKS
IRON MOUNTAIN  CLOUDY    80  65  59 NW14      29.92F
MARINETTE      CLOUDY    72  70  93 VRB3      29.96R
OCONTO         MOSUNNY   75  70  83 SW8       29.95F
$$

WIZ017-030-035>037-045-262100-
CENTRAL WISCONSIN

CITY           SKY/WX    TMP DP  RH WIND       PRES   REMARKS
MEDFORD        CLOUDY    71  68  90 W5        30.00F
WAUSAU         CLOUDY    73  69  87 W9        29.98S
MOSINEE        PTSUNNY   73  70  88 SW9       30.01F
MARSHFIELD     CLOUDY    74  67  78 W6        30.00S
WISC RAPIDS    LGT RAIN  74  71  91 W5        30.03R
STEVENS POINT  LGT RAIN  74  68  82 SW6       30.01S
WAUPACA        LGT RAIN  81  71  72 W7        30.00R
SHAWANO        PTSUNNY   78  69  75 SW8       29.96F
CLINTONVILLE   CLOUDY   N/A N/A N/A SW7       29.98F
WAUTOMA        LGT RAIN  79  73  83 W7        30.01R
$$

WIZ038-039-048-051-262100-
FOX VALLEY

CITY           SKY/WX    TMP DP  RH WIND       PRES   REMARKS
NWS GREEN BAY  MOSUNNY   78  73  84 SW7       29.97F
APPLETON       PTSUNNY   79  66  65 W9        29.98F
OSHKOSH        CLOUDY    78  71  79 S12       29.99S
FOND DU LAC    CLOUDY    76  71  85 S9        30.00F
$$

WIZ022-050-052-262100-
EAST CENTRAL WISCONSIN

CITY           SKY/WX    TMP DP  RH WIND       PRES   REMARKS
EPHRAIM        LGT RAIN  70  68  94 SW3       29.95F
WASHINGTON ISL MOCLDY    70  67  92 S7        29.93F
STURGEON BAY     N/A     75  70  84 SW8       29.96F
MANITOWOC      PTSUNNY   73  70  90 S8        30.02R
SHEBOYGAN      LGT RAIN  71  70  96 S3        30.01S FOG
$$

LMZ563-521-522-541>543-262100-
LAKESHORE

STATION/POSITION TIME  TEMP    WIND        PRES    VSBY  WAVE
                       AIR SEA DIR/SP/G                  HT/PER
                 (UTC) (F)     (DEG/KT/KT) (MB)    (MI)  (FT/S)
SHEBOYGAN LKSHOR 2000   71     200/  4/  5 1016.4R
KEWAUNEE LKSHORE 1942   69     180/  9/ 11 1014.5F
NORTHPORT PIER   1940   71     190/  3/  8 1013.9S
N MID LAKE BUOY  1950   67 65  210/ 16/ 19 1014.7R         4/ 6
S GREEN BAY BUOY 2000   73 71  200/ 10/ 14 1014.1
SISTER BAY LKSHO 2002   72     200/ 10/ 13   N/A
CHAMBERS ISLAND  1940   70     180/  6/ 12 1013.5F
MENOMINEE LKSHOR 1942   72     170/  5/  7 1013.7F
$$




USA.gov is the U.S. government's official web portal to all federal, state and local government web resources and services.